Weather in Olyokminsk

Russia / Sakha (Yakutia) Republic     60°22′32″N   120°24′21″E
temp.,
°C
wind,
m/s
gust,
m/s
humid.,
%
clouds,
%
prec.,
mm/h
press.,
hPa
HPBL,
m
24 july, sat
sat2400:00+15nnw3894100 0.1 1004390
03:00+16nnw31090100 0.3 1004413
06:00+15nw399399 0.3 1004288
09:00+16nnw41191100 0.3 1005484
12:00+18nnw4786100 0.1 1006695
15:00+17n41093100 1.0 1006735
18:00+18n31086100 0.3 1007548
21:00+17nw1182100 0.3 100815
25 july, sun
sun2500:00+16w1184100 0.0 100810
03:00+15wsw1186100 0.0 100911
06:00+15nnw2587100 0.0 1010157
09:00+20n36604 0.0 1011725
12:00+24n45385 0.0 10102025
15:00+25nne35316 0.0 10102489
18:00+25nne46325 0.0 10102119
21:00+18nne22605 0.0 101121
26 july, mon
mon2600:00+14n127085 0.0 101311
03:00+12n117384 0.0 101310
06:00+14nnw1169100 0.0 101412
09:00+21w11430 0.0 1014381
12:00+27wsw11320 0.0 10121033
15:00+29wsw123344 0.0 10101490
18:00+28nne224377 0.0 1010726
21:00+22ssw00630 0.0 101011
27 july, tue
tue2700:00+19wsw01700 0.0 101011
03:00+17sw11770 0.0 101011
06:00+18s118030 0.1 101018
09:00+21se007357 0.6 1009192
12:00+28ssw11458 0.1 1008722
15:00+31nne11345 0.1 10052237
18:00+29n333839 0.0 1004875
21:00+22nne117234 0.4 100412
28 july, wed
wed2800:00+19n118137 0.0 100411
03:00+17nnw11875 0.2 100311
06:00+18ne11855 0.0 100318
09:00+23ne12673 0.2 1003455
12:00+28nne334774 0.0 10011286
15:00+29nne45405 0.0 9992224
18:00+27nne66458 0.0 10001804
21:00+20nne3947100 0.3 1002354